Location: Gila Cliff Dwellings National Monument
(33.2240°N, 108.2417°W)
Time: 20:34:00
(UTC-06:00)

Cosmos 2322 Rocket - Visible Passes

Search period start: 28 July 2014 00:00
Search period end: 07 August 2014 00:00
Orbit: 834 x 850 km, 71.0° (Epoch: 28 July)

Date Brightness Start Highest point End Pass type
(mag) Time Alt. Az. Time Alt. Az. Time Alt. Az.
28 Jul 2.9 21:35:53 10° NNW 21:41:18 52° WSW 21:46:25 12° S visible
29 Jul 2.8 21:20:56 10° NNW 21:26:24 55° WSW 21:31:51 10° S visible
30 Jul 2.7 21:06:00 10° NNW 21:11:30 59° WSW 21:17:00 10° S visible
31 Jul 2.7 20:51:05 10° NNW 20:56:36 62° WSW 21:02:07 10° S visible
01 Aug 2.6 20:36:09 10° NNW 20:41:42 66° WSW 20:47:15 10° S visible
